Temp
-4 -4 -4 -4 -4 -4 -4 -4 -4 -5 -5 -5 -5 -5 -5 -5 -5 -5 -5 -5 -4 -4 -4 -4 -4 -4 -4 -4 -4 -4 -4 -4 -4 -3 -3 -3 -3 -2 -2 -2 -2 -2 -2 -2 -2 -2 -2 -2 -2 -1 -1 -1 -1 -1 -1 -1 -0 -0 -0 -0 0 0 0 1 1 1 1 2 2
-5 -5 -5 -5 -5 -5 -5 -5 -5 -5 -5 -5 -5 -5 -5 -5 -5 -5 -5 -5 -5 -5 -4 -4 -4 -4 -4 -4 -4 -4 -4 -4 -4 -4 -3 -3 -3 -2 -2 -2 -2 -2 -2 -2 -2 -2 -2 -2 -2 -2 -1 -1 -1 -1 -1 -1 -1 -0 -0 -0 0 0 1 1 1 1 1 2 2
-5 -5 -5 -5 -5 -5 -5 -5 -5 -5 -6 -6 -6 -6 -6 -6 -5 -5 -5 -5 -5 -5 -5 -4 -4 -4 -4 -4 -4 -4 -4 -4 -4 -4 -3 -3 -3 -2 -2 -2 -2 -2 -3 -3 -2 -2 -2 -2 -2 -2 -1 -1 -1 -1 -1 -1 -1 -1 -1 -0 0 0 1 1 1 2 2 2 2
-6 -6 -6 -6 -6 -6 -6 -6 -6 -6 -6 -6 -6 -6 -6 -6 -6 -6 -6 -5 -5 -5 -5 -5 -5 -5 -5 -4 -4 -4 -4 -4 -4 -4 -3 -3 -3 -3 -3 -3 -3 -3 -3 -3 -3 -3 -2 -2 -2 -2 -2 -1 -1 -1 -1 -1 -1 -1 -1 -1 -0 0 1 1 2 2 2 2 2
-6 -6 -6 -6 -6 -6 -6 -6 -7 -7 -7 -7 -7 -6 -6 -6 -6 -6 -6 -6 -6 -5 -5 -5 -5 -5 -5 -5 -5 -5 -5 -4 -4 -4 -3 -3 -3 -3 -3 -3 -3 -3 -3 -3 -3 -3 -3 -2 -2 -2 -2 -1 -1 -1 -1 -1 -1 -1 -1 -1 -0 0 1 1 2 2 2 2 2
-6 -6 -7 -7 -7 -7 -7 -7 -7 -8 -7 -7 -7 -7 -7 -6 -6 -6 -6 -6 -6 -6 -5 -5 -5 -5 -5 -5 -5 -5 -5 -4 -4 -4 -4 -3 -3 -3 -3 -3 -3 -3 -3 -3 -3 -3 -3 -3 -2 -2 -2 -1 -1 -1 -1 -2 -1 -1 -1 -1 -1 -0 0 1 2 3 3 3 3
-7 -7 -7 -7 -7 -7 -8 -8 -8 -8 -8 -8 -7 -7 -7 -7 -7 -7 -6 -6 -6 -6 -6 -6 -6 -5 -5 -5 -5 -5 -5 -5 -4 -4 -4 -3 -3 -3 -3 -3 -3 -3 -3 -3 -3 -3 -3 -3 -2 -2 -2 -1 -1 -2 -2 -2 -2 -1 -1 -1 -1 -1 -0 1 2 2 3 3 3
-7 -7 -7 -8 -8 -8 -8 -8 -9 -9 -8 -8 -8 -7 -7 -7 -7 -7 -7 -7 -6 -6 -6 -6 -6 -6 -6 -6 -6 -6 -5 -5 -5 -4 -4 -4 -3 -3 -3 -3 -3 -3 -3 -3 -3 -3 -3 -3 -2 -2 -2 -2 -2 -2 -2 -2 -2 -2 -1 -1 -1 -1 -0 -0 0 1 2 3 3
-8 -8 -8 -8 -8 -8 -9 -9 -9 -9 -8 -8 -8 -8 -7 -7 -7 -7 -7 -7 -7 -6 -6 -6 -6 -6 -6 -6 -6 -6 -6 -5 -5 -5 -4 -4 -3 -3 -3 -3 -3 -4 -4 -3 -3 -3 -3 -3 -2 -2 -2 -2 -2 -2 -2 -2 -2 -2 -2 -1 -1 -1 -1 -1 -0 -0 0 1 2
-8 -8 -8 -8 -9 -9 -9 -9 -9 -9 -8 -8 -8 -8 -8 -7 -7 -7 -7 -7 -7 -7 -7 -7 -6 -6 -6 -6 -6 -6 -6 -6 -5 -5 -4 -4 -3 -3 -3 -4 -4 -4 -4 -4 -4 -3 -3 -3 -3 -2 -2 -2 -2 -2 -2 -2 -2 -2 -2 -1 -1 -1 -1 -1 -1 -0 -0 0 1
-8 -8 -9 -9 -9 -9 -9 -9 -9 -9 -8 -8 -8 -8 -8 -8 -7 -7 -7 -7 -7 -7 -7 -7 -7 -7 -7 -7 -7 -6 -6 -6 -6 -5 -4 -4 -3 -3 -4 -4 -4 -4 -4 -4 -4 -3 -3 -3 -3 -3 -2 -2 -2 -2 -2 -2 -2 -2 -2 -2 -1 -1 -1 -1 -1 -1 -0 -0 0
-9 -9 -9 -9 -9 -9 -9 -9 -9 -9 -8 -8 -8 -8 -8 -8 -8 -7 -7 -7 -7 -7 -7 -7 -7 -7 -7 -7 -7 -7 -7 -6 -6 -5 -4 -4 -4 -4 -4 -4 -4 -4 -4 -4 -4 -4 -3 -3 -3 -3 -2 -2 -2 -2 -2 -2 -2 -2 -2 -2 -1 -1 -1 -1 -1 -1 -1 -0 -0
-9 -9 -9 -9 -9 -9 -9 -9 -9 -9 -8 -8 -8 -8 -8 -8 -8 -7 -7 -7 -7 -7 -7 -7 -7 -7 -7 -7 -7 -7 -7 -6 -6 -5 -5 -4 -4 -4 -5 -5 -5 -5 -4 -4 -4 -4 -4 -3 -3 -3 -3 -2 -2 -2 -2 -2 -2 -2 -2 -2 -2 -1 -1 -1 -1 -1 -1 -1 -0
-9 -9 -9 -9 -9 -9 -9 -9 -9 -9 -8 -8 -8 -8 -8 -8 -8 -8 -8 -8 -8 -8 -8 -8 -8 -8 -7 -7 -7 -7 -7 -7 -6 -5 -5 -5 -5 -5 -5 -5 -5 -5 -5 -4 -4 -4 -4 -4 -4 -3 -3 -2 -2 -2 -2 -2 -2 -2 -2 -2 -2 -2 -2 -1 -1 -1 -1 -1 -1
-9 -10 -10 -10 -9 -9 -9 -9 -9 -9 -8 -8 -8 -8 -8 -8 -8 -8 -8 -8 -8 -8 -8 -8 -8 -8 -8 -8 -8 -7 -7 -7 -6 -6 -5 -5 -5 -5 -5 -5 -5 -5 -5 -5 -5 -4 -4 -4 -4 -4 -3 -2 -2 -2 -2 -2 -2 -2 -2 -2 -2 -2 -2 -2 -1 -1 -1 -1 -1
-10 -10 -10 -10 -10 -9 -9 -9 -9 -9 -8 -8 -8 -8 -8 -8 -8 -8 -8 -8 -8 -8 -8 -8 -8 -8 -8 -8 -8 -7 -7 -7 -6 -6 -5 -5 -5 -5 -5 -5 -5 -5 -5 -5 -5 -5 -4 -4 -4 -4 -3 -2 -2 -2 -2 -3 -3 -3 -2 -2 -2 -2 -2 -2 -2 -1 -1 -1 -1
-10 -10 -10 -10 -10 -10 -9 -9 -9 -9 -8 -8 -8 -8 -8 -8 -8 -8 -8 -8 -8 -8 -8 -8 -8 -8 -8 -8 -8 -7 -7 -7 -6 -6 -6 -6 -6 -6 -6 -5 -5 -5 -5 -5 -5 -5 -5 -4 -4 -4 -3 -2 -2 -2 -3 -3 -3 -3 -3 -3 -2 -2 -2 -2 -2 -2 -2 -1 -1
-10 -10 -10 -10 -10 -10 -9 -9 -9 -9 -9 -8 -8 -8 -8 -8 -8 -8 -8 -8 -8 -9 -9 -9 -8 -8 -8 -8 -8 -7 -7 -7 -6 -6 -6 -6 -6 -6 -6 -6 -6 -6 -6 -5 -5 -5 -5 -5 -4 -4 -3 -2 -2 -2 -3 -3 -3 -3 -3 -3 -3 -2 -2 -2 -2 -2 -2 -2 -2
-10 -10 -10 -10 -10 -10 -9 -9 -9 -9 -9 -9 -8 -8 -8 -8 -8 -9 -9 -9 -9 -9 -9 -9 -9 -8 -8 -8 -7 -7 -7 -7 -7 -6 -6 -6 -6 -6 -6 -6 -6 -6 -6 -6 -5 -5 -5 -5 -5 -4 -3 -2 -2 -2 -3 -3 -3 -3 -3 -3 -3 -3 -2 -2 -2 -2 -2 -2 -2
-10 -10 -10 -10 -10 -10 -9 -9 -9 -9 -9 -9 -9 -8 -8 -8 -9 -9 -9 -9 -9 -9 -9 -9 -9 -8 -8 -8 -7 -7 -7 -7 -7 -7 -6 -6 -6 -6 -6 -6 -6 -6 -6 -6 -5 -5 -5 -5 -5 -4 -2 -2 -2 -3 -3 -3 -3 -3 -3 -3 -3 -3 -3 -2 -2 -2 -2 -2 -2
-10 -10 -10 -10 -10 -10 -10 -9 -9 -9 -9 -9 -9 -9 -9 -9 -9 -9 -9 -9 -9 -9 -9 -9 -9 -8 -8 -8 -7 -7 -7 -7 -7 -7 -6 -6 -6 -6 -6 -6 -6 -6 -6 -6 -6 -5 -5 -5 -4 -3 -2 -2 -2 -3 -3 -3 -3 -3 -3 -3 -3 -3 -3 -3 -2 -2 -2 -2 -2
-10 -10 -10 -10 -10 -10 -10 -9 -9 -9 -9 -9 -9 -9 -9 -9 -9 -9 -9 -9 -9 -9 -9 -9 -9 -8 -8 -8 -8 -7 -7 -7 -7 -7 -6 -6 -6 -6 -6 -6 -6 -6 -6 -6 -6 -6 -5 -5 -4 -3 -2 -2 -3 -3 -3 -3 -3 -3 -3 -3 -3 -3 -3 -3 -3 -2 -2 -2 -2
-11 -10 -10 -10 -10 -10 -10 -9 -9 -9 -9 -9 -9 -9 -9 -9 -9 -9 -9 -9 -9 -9 -9 -9 -9 -8 -8 -8 -8 -7 -7 -7 -7 -7 -7 -6 -6 -6 -6 -6 -6 -6 -6 -6 -6 -6 -5 -4 -3 -2 -2 -2 -3 -3 -3 -3 -3 -3 -3 -3 -3 -3 -3 -3 -3 -3 -2 -2 -2
-11 -10 -10 -10 -10 -10 -9 -9 -9 -9 -9 -9 -9 -9 -9 -9 -9 -9 -9 -9 -9 -9 -9 -9 -9 -9 -8 -8 -8 -7 -7 -7 -7 -7 -7 -6 -6 -6 -6 -6 -6 -6 -6 -6 -6 -5 -4 -3 -2 -2 -2 -3 -3 -3 -3 -3 -3 -3 -3 -3 -3 -3 -3 -3 -3 -3 -3 -2 -2
-11 -10 -10 -10 -10 -9 -9 -9 -9 -9 -9 -9 -9 -9 -9 -9 -9 -9 -9 -9 -9 -9 -9 -9 -9 -9 -8 -8 -8 -8 -7 -7 -7 -7 -7 -7 -7 -6 -6 -6 -6 -6 -6 -6 -6 -5 -4 -3 -2 -2 -2 -3 -3 -3 -3 -3 -3 -3 -3 -3 -3 -3 -3 -3 -3 -3 -3 -2 -2
-10 -10 -10 -10 -9 -9 -9 -9 -9 -9 -9 -9 -9 -9 -9 -9 -9 -9 -9 -9 -9 -9 -9 -9 -9 -8 -8 -8 -8 -8 -8 -7 -7 -7 -7 -7 -7 -7 -6 -6 -6 -6 -6 -6 -6 -5 -4 -3 -2 -2 -2 -3 -3 -3 -3 -3 -3 -3 -3 -3 -3 -4 -4 -4 -3 -3 -3 -3 -3
-10 -10 -10 -9 -9 -9 -9 -9 -9 -9 -9 -9 -9 -9 -9 -9 -9 -9 -9 -9 -9 -9 -9 -9 -8 -8 -8 -8 -8 -8 -8 -8 -7 -7 -7 -7 -7 -7 -6 -6 -6 -6 -6 -6 -5 -5 -4 -3 -2 -2 -2 -3 -3 -3 -3 -3 -3 -3 -3 -3 -4 -4 -4 -4 -4 -3 -3 -3 -3
-10 -10 -9 -9 -9 -9 -9 -9 -9 -9 -9 -9 -9 -9 -9 -9 -9 -9 -9 -9 -9 -9 -8 -8 -8 -8 -8 -8 -8 -8 -8 -8 -7 -7 -7 -7 -7 -7 -6 -6 -6 -6 -6 -6 -5 -5 -4 -3 -3 -2 -2 -3 -3 -4 -4 -3 -3 -3 -3 -3 -4 -4 -4 -4 -4 -3 -3 -3 -3
-10 -10 -9 -9 -9 -9 -9 -9 -9 -9 -9 -9 -9 -9 -9 -9 -9 -9 -9 -9 -9 -8 -8 -8 -8 -8 -8 -8 -8 -7 -7 -7 -7 -7 -7 -7 -7 -7 -6 -6 -6 -6 -6 -6 -5 -5 -4 -3 -3 -3 -3 -3 -3 -4 -4 -4 -3 -3 -3 -3 -4 -4 -4 -4 -4 -3 -3 -3 -2
-10 -10 -9 -9 -9 -9 -9 -9 -9 -9 -9 -9 -9 -9 -9 -9 -9 -9 -9 -9 -8 -8 -8 -8 -8 -8 -8 -8 -7 -7 -7 -7 -7 -7 -7 -7 -7 -7 -6 -6 -6 -7 -6 -6 -5 -5 -4 -4 -3 -3 -3 -3 -4 -4 -4 -4 -3 -3 -3 -3 -4 -4 -4 -4 -4 -3 -3 -3 -2
-10 -10 -9 -9 -9 -9 -9 -9 -9 -9 -9 -9 -9 -9 -9 -8 -8 -8 -8 -8 -8 -8 -8 -8 -8 -8 -8 -8 -7 -7 -7 -7 -7 -7 -7 -7 -7 -7 -6 -6 -6 -7 -6 -6 -5 -5 -4 -4 -3 -3 -3 -3 -4 -4 -4 -4 -4 -3 -3 -3 -4 -4 -4 -4 -4 -3 -3 -3 -2
-10 -10 -9 -9 -9 -9 -9 -9 -9 -9 -9 -9 -9 -9 -8 -8 -8 -8 -8 -8 -8 -8 -8 -8 -8 -8 -8 -8 -7 -7 -7 -7 -7 -7 -7 -7 -7 -7 -7 -6 -7 -7 -6 -6 -5 -5 -4 -4 -3 -3 -3 -4 -4 -4 -4 -4 -4 -3 -3 -4 -4 -4 -4 -4 -4 -3 -3 -3 -2
-10 -10 -9 -9 -9 -9 -9 -9 -9 -9 -9 -9 -9 -9 -8 -8 -8 -8 -8 -8 -8 -8 -8 -8 -8 -8 -8 -8 -8 -8 -8 -8 -7 -7 -7 -7 -7 -7 -7 -6 -7 -7 -6 -6 -5 -5 -4 -3 -3 -3 -4 -4 -4 -4 -4 -4 -4 -4 -4 -4 -4 -4 -4 -4 -4 -3 -3 -3 -2
-10 -10 -9 -9 -9 -9 -9 -9 -9 -9 -9 -9 -9 -8 -8 -8 -8 -8 -8 -8 -8 -8 -8 -8 -8 -8 -8 -8 -8 -8 -8 -8 -7 -7 -7 -7 -7 -7 -7 -7 -7 -7 -6 -6 -6 -5 -4 -3 -3 -4 -4 -4 -4 -4 -4 -4 -4 -4 -4 -4 -4 -4 -4 -4 -4 -3 -3 -3 -3
-10 -9 -9 -9 -9 -9 -9 -9 -9 -9 -9 -9 -9 -8 -8 -8 -8 -8 -8 -8 -8 -8 -8 -8 -8 -8 -8 -8 -8 -8 -8 -8 -8 -8 -7 -7 -7 -7 -7 -7 -7 -7 -6 -6 -6 -5 -4 -3 -4 -4 -4 -4 -4 -4 -4 -4 -4 -4 -4 -4 -4 -4 -4 -4 -4 -3 -3 -3 -3
-10 -9 -9 -9 -9 -9 -9 -9 -9 -9 -9 -9 -9 -8 -8 -8 -8 -8 -8 -8 -8 -8 -9 -9 -8 -8 -8 -8 -8 -8 -8 -8 -8 -8 -7 -7 -7 -7 -7 -7 -7 -7 -7 -6 -6 -6 -5 -4 -4 -4 -4 -4 -4 -4 -4 -4 -4 -4 -4 -4 -4 -4 -4 -4 -3 -3 -3 -3 -3
-9 -9 -9 -9 -9 -9 -9 -9 -9 -9 -9 -9 -9 -9 -8 -8 -8 -8 -8 -8 -8 -8 -9 -9 -8 -8 -8 -8 -8 -8 -8 -8 -8 -8 -7 -7 -7 -7 -7 -7 -7 -7 -7 -7 -6 -6 -5 -4 -4 -4 -4 -4 -4 -4 -4 -4 -4 -4 -4 -4 -4 -4 -4 -3 -3 -3 -3 -3 -3
-9 -9 -9 -9 -9 -9 -9 -9 -9 -9 -9 -9 -9 -9 -9 -9 -9 -9 -9 -9 -9 -9 -9 -9 -8 -8 -8 -8 -8 -8 -8 -8 -8 -8 -7 -7 -7 -7 -7 -7 -7 -7 -7 -7 -6 -6 -5 -4 -4 -4 -4 -4 -4 -4 -4 -4 -4 -4 -4 -4 -4 -4 -4 -3 -3 -3 -3 -3 -3
-10 -9 -9 -9 -9 -9 -9 -9 -9 -9 -9 -9 -9 -9 -9 -9 -9 -9 -9 -9 -9 -9 -9 -9 -9 -8 -8 -8 -8 -8 -8 -8 -8 -8 -7 -7 -7 -7 -7 -7 -7 -7 -7 -7 -6 -6 -5 -5 -4 -4 -4 -4 -4 -4 -4 -4 -4 -4 -4 -4 -4 -4 -4 -4 -3 -3 -3 -3 -3
-10 -10 -9 -9 -9 -9 -9 -9 -9 -9 -9 -9 -9 -9 -9 -9 -9 -9 -9 -9 -9 -9 -9 -9 -9 -9 -8 -8 -8 -8 -8 -8 -8 -8 -7 -7 -7 -7 -7 -7 -7 -7 -7 -7 -6 -6 -5 -5 -4 -4 -4 -4 -4 -4 -4 -4 -4 -4 -4 -4 -4 -4 -4 -3 -3 -3 -3 -3 -3
-10 -10 -10 -10 -9 -9 -9 -9 -9 -9 -9 -9 -9 -9 -9 -9 -9 -9 -9 -9 -9 -9 -9 -9 -9 -9 -8 -8 -8 -8 -8 -8 -8 -7 -7 -7 -7 -7 -7 -7 -7 -7 -7 -7 -6 -6 -5 -5 -4 -4 -4 -4 -4 -4 -4 -4 -5 -5 -4 -4 -4 -4 -4 -3 -3 -3 -3 -3 -3
Height
870 868 866 865 863 862 860 859 857 855 854 852 850 848 846 845 842 840 838 836 835 832 830 828 826 824 822 820 818 815 814 811 810 807 805 804 802 800 798 796 794 792 791 789 787 785 782 780 778 776 773 771 768 766 764 762 760 758 756 754 752 750 749 748 746 745 744 744 743
869 868 867 865 864 862 860 859 857 855 854 852 850 848 846 845 843 840 838 836 835 832 830 828 825 823 821 819 817 815 813 811 809 807 805 803 801 799 797 795 794 792 790 788 786 784 781 779 777 775 772 770 767 765 763 760 759 756 754 752 750 749 747 745 744 742 742 741 740
870 868 866 865 864 862 860 859 857 855 854 852 850 849 847 845 843 841 839 837 835 832 830 827 825 823 821 819 817 815 813 811 808 806 804 802 800 798 796 795 793 791 790 787 785 783 781 779 776 774 771 769 766 764 762 759 757 755 753 751 749 747 745 743 741 740 739 738 738
870 868 866 865 864 862 861 859 857 855 854 852 850 848 847 845 843 841 839 837 834 832 830 827 825 822 820 818 816 814 812 810 808 806 803 801 799 797 796 794 792 790 789 786 785 782 780 778 775 773 770 768 766 764 761 759 756 754 752 750 747 745 743 740 739 738 737 736 735
869 868 867 865 864 862 861 859 857 855 854 852 850 848 846 845 843 841 839 836 834 832 830 827 825 822 820 818 815 814 811 809 807 805 803 800 799 797 795 793 792 790 788 786 784 781 779 777 775 772 770 767 765 763 760 758 756 754 751 749 746 744 741 739 737 735 734 733 733
869 868 866 865 864 862 860 859 857 855 854 852 850 848 846 845 843 841 839 836 834 831 829 826 824 822 819 817 815 813 810 808 806 805 802 800 798 796 794 793 791 790 787 785 783 780 778 776 774 771 769 767 765 762 760 758 755 753 750 748 745 743 740 738 735 733 731 731 730
869 868 866 865 863 862 860 859 857 855 853 851 850 848 846 844 842 840 838 836 834 831 829 826 824 821 819 816 814 812 810 808 805 804 801 799 797 795 794 792 790 789 787 784 782 780 777 775 773 770 768 766 764 761 759 757 755 752 750 747 745 742 740 737 735 732 730 729 728
870 868 866 865 863 861 860 858 856 854 853 851 849 848 846 844 842 840 838 835 833 831 828 826 823 821 819 816 814 811 809 807 805 802 800 798 796 795 793 791 790 788 786 784 781 779 777 775 772 770 768 765 763 760 758 756 754 752 749 747 744 742 740 737 735 732 730 728 726
869 868 866 865 863 861 859 858 856 854 852 851 849 847 845 844 841 839 837 835 833 830 828 826 823 820 818 816 813 811 808 806 804 801 799 797 795 794 792 791 789 787 785 783 780 778 776 774 772 770 767 765 763 760 758 755 753 751 749 746 744 741 739 737 735 732 730 727 725
869 867 866 864 862 860 859 857 855 854 852 850 849 847 845 843 841 839 837 835 832 830 828 825 823 820 818 815 813 810 808 805 803 800 798 796 795 793 791 790 789 787 784 782 780 778 775 773 771 769 767 765 762 760 757 755 753 750 748 746 743 741 738 736 734 731 729 727 725
869 867 866 864 862 860 858 857 855 853 851 850 848 846 844 842 840 839 836 834 832 830 827 825 822 820 817 815 812 810 808 805 803 800 798 795 794 792 791 790 788 786 783 781 779 777 775 772 770 768 766 764 761 759 756 754 752 750 747 745 743 740 738 735 733 731 729 727 725
869 867 865 864 862 860 858 856 855 853 851 849 847 845 844 842 840 838 836 834 831 829 826 824 822 819 817 815 812 810 807 805 802 800 797 795 793 791 790 788 786 785 782 780 778 776 774 772 769 767 765 762 760 758 756 754 751 749 747 745 742 740 738 735 733 730 728 726 724
869 867 865 863 862 860 858 856 854 852 850 849 847 845 843 841 839 837 835 833 830 828 826 823 821 819 817 814 812 810 807 805 802 800 798 795 793 791 789 787 785 783 781 779 777 775 773 771 768 766 763 761 759 757 755 753 750 748 746 744 741 739 737 735 732 730 728 726 724
869 867 865 863 861 860 858 856 854 852 850 848 846 845 843 840 838 836 835 832 830 828 825 823 820 819 816 814 812 809 807 805 802 800 797 795 793 791 789 787 785 782 780 778 776 774 772 770 767 765 762 760 758 756 754 752 750 748 745 743 741 739 736 734 732 730 728 725 723
868 866 865 863 861 859 858 856 854 852 850 848 846 844 842 840 838 836 834 832 830 827 825 822 820 818 816 814 811 809 807 804 802 800 797 795 793 791 789 786 784 781 779 777 775 773 771 769 766 764 761 759 757 755 753 751 749 747 745 742 740 738 736 733 731 729 727 725 723
868 866 864 863 861 859 857 856 854 852 850 848 846 844 842 840 838 836 834 831 829 826 824 822 820 817 815 813 811 809 806 804 801 799 797 795 792 790 788 786 783 781 778 776 774 771 769 767 765 762 760 758 756 754 752 750 748 746 744 742 740 737 735 733 731 729 727 725 722
867 866 864 862 860 859 857 855 854 852 850 848 845 844 842 840 838 835 833 831 829 826 824 821 819 817 815 812 810 808 806 804 801 799 797 795 792 790 788 785 783 780 778 775 773 770 768 766 763 761 759 757 756 754 752 750 748 745 743 741 739 737 735 732 730 728 726 724 722
867 865 864 862 860 859 857 855 853 851 850 847 845 843 842 840 838 835 833 831 828 826 823 821 819 817 814 812 810 808 806 803 801 799 797 795 792 790 788 785 783 780 777 775 773 770 767 765 762 760 758 756 755 753 751 749 747 745 743 741 739 736 734 732 730 728 726 724 722
867 865 863 861 860 858 856 855 853 851 849 847 845 843 841 840 837 835 832 830 828 825 823 820 818 816 814 812 810 808 805 803 801 799 796 794 792 790 787 785 782 780 777 775 772 770 767 764 761 759 757 755 754 752 750 749 747 745 743 740 739 736 734 732 730 728 726 724 722
866 865 863 861 860 858 856 854 853 851 849 847 845 843 841 839 837 835 832 829 827 825 823 820 818 815 813 811 809 807 805 803 800 798 796 794 792 790 787 785 782 779 776 774 771 769 766 763 760 758 756 755 753 752 750 748 746 745 743 740 739 736 735 732 730 729 726 724 722
866 865 863 861 859 858 856 854 852 850 849 846 845 843 840 838 836 834 831 829 827 825 822 820 818 815 813 811 809 807 805 803 800 798 796 794 791 789 787 785 782 779 776 774 771 768 765 762 759 756 755 754 753 751 750 748 747 745 743 741 739 737 735 733 731 729 727 725 722
866 864 862 861 859 857 855 854 852 850 848 846 844 842 840 838 836 834 831 829 826 824 822 820 817 815 813 811 809 807 805 803 800 798 796 794 791 789 787 785 782 779 776 773 770 768 764 760 757 755 754 753 752 751 750 749 747 745 743 741 739 737 735 733 731 729 727 725 723
865 864 862 860 859 857 855 853 851 849 847 845 844 841 840 837 835 833 830 828 826 824 822 820 817 815 813 811 809 807 805 802 800 798 796 794 791 789 787 784 782 779 776 774 771 768 764 760 756 754 753 753 752 751 750 749 747 745 744 742 740 738 736 734 732 730 727 725 723
865 863 861 860 858 856 854 852 850 849 847 845 843 841 839 837 835 832 830 828 825 823 821 819 817 815 813 811 809 806 805 802 800 798 795 794 791 789 787 784 782 779 776 774 771 768 765 761 757 755 754 753 752 751 750 749 748 746 744 742 740 739 736 734 732 730 728 726 724
865 863 861 859 857 855 854 852 850 848 846 844 842 840 838 836 834 832 830 827 825 823 821 819 817 815 813 810 808 806 804 802 800 798 795 793 791 789 787 784 782 780 776 774 771 768 765 762 759 756 755 754 753 751 750 749 748 746 745 743 741 739 737 735 733 731 729 727 725
864 862 860 859 857 855 853 851 849 847 845 844 842 840 838 836 834 832 829 827 825 823 821 819 816 814 812 810 808 806 804 802 800 798 795 793 791 789 787 785 782 780 776 774 771 768 765 762 760 757 755 754 753 752 750 749 748 746 745 743 742 740 738 736 733 731 729 728 726
863 861 860 858 856 854 852 850 849 847 845 843 841 839 837 835 834 831 829 827 825 822 820 818 816 814 812 810 808 806 804 802 800 798 796 794 791 789 787 785 782 779 776 774 772 769 766 762 760 757 755 754 753 752 751 750 748 746 745 744 742 740 739 736 734 732 730 728 727
863 861 859 857 855 854 852 850 848 846 844 842 840 839 837 835 833 831 829 826 824 822 820 818 816 814 812 810 808 806 804 802 800 798 796 794 792 790 787 785 782 779 776 774 772 770 766 763 760 758 756 755 753 752 751 750 748 747 745 744 743 741 739 737 735 733 731 730 728
862 860 858 856 855 853 851 849 847 845 844 842 840 838 836 835 832 830 828 826 824 822 820 818 816 814 812 810 808 806 804 802 800 798 796 794 792 790 787 785 782 779 776 774 772 770 766 763 760 758 756 755 754 752 751 750 749 747 746 745 743 742 740 738 736 734 732 731 729
862 860 858 856 854 852 850 849 847 845 843 841 839 838 836 834 832 830 828 826 824 822 820 819 816 815 812 810 808 806 804 802 800 798 796 794 792 790 787 785 782 779 776 774 772 770 767 763 760 758 757 755 754 752 751 750 749 748 747 746 744 742 740 739 737 735 733 732 730
861 859 857 855 853 851 850 848 846 845 843 841 839 837 835 833 831 830 828 826 824 822 820 818 816 815 812 810 808 806 805 802 800 798 796 794 792 790 787 785 782 779 776 774 772 769 766 763 760 758 757 755 754 752 751 751 750 749 748 746 745 743 741 740 738 736 735 733 731
860 859 856 855 853 851 849 847 845 844 842 840 839 837 835 833 831 830 828 826 824 822 820 818 816 814 812 810 808 806 805 802 800 799 796 795 792 790 788 785 782 780 777 774 772 769 766 762 760 758 757 755 754 753 752 751 750 750 749 747 745 744 742 740 739 737 735 734 732
860 858 856 854 852 850 848 847 845 843 841 840 838 836 835 833 831 829 827 825 824 822 820 818 816 814 812 810 808 806 804 803 800 799 797 795 793 790 788 785 783 780 778 775 772 770 766 762 760 758 757 756 754 753 753 752 751 750 749 748 746 744 743 741 740 738 737 735 734
859 857 855 853 851 850 848 846 844 843 841 839 837 836 834 832 830 828 827 825 823 821 820 818 816 814 812 810 808 806 805 803 801 799 797 795 793 791 789 786 783 781 778 776 773 770 767 763 760 759 758 756 755 754 754 753 752 751 750 748 747 745 743 742 740 739 738 737 735
858 856 854 852 851 849 847 845 844 842 840 838 837 835 833 831 830 828 826 825 823 821 820 818 816 814 812 810 809 807 805 803 801 799 797 795 793 791 789 786 784 782 779 776 774 771 768 765 762 760 759 757 756 755 755 754 753 752 751 750 748 746 744 742 741 740 739 738 737
858 856 854 852 850 848 846 845 843 841 840 838 836 834 832 831 829 828 826 824 822 821 819 817 815 814 812 810 808 806 805 803 801 799 797 795 793 791 789 787 785 782 780 777 774 772 769 766 763 761 760 758 757 756 755 755 754 753 752 751 749 747 746 744 743 742 740 739 738
857 855 854 851 850 848 846 844 842 840 839 837 835 834 832 830 829 827 825 824 822 820 819 817 815 813 812 810 808 806 805 803 801 799 797 795 793 791 790 787 785 783 780 778 775 773 770 768 765 763 761 760 758 757 756 755 755 754 753 752 750 749 748 746 745 744 742 741 740
857 855 853 851 849 847 845 844 842 840 838 836 835 833 831 830 828 826 825 824 822 820 818 816 815 813 811 810 808 806 805 803 801 799 797 795 794 792 790 788 785 783 781 779 776 774 771 769 766 764 762 761 760 758 757 756 756 755 754 753 752 751 749 748 747 745 744 742 741
856 854 852 850 848 846 845 843 841 839 838 836 834 832 831 829 828 826 825 823 822 820 818 816 815 813 811 810 808 806 804 803 801 799 798 796 794 792 790 789 786 784 782 780 777 775 772 770 768 766 764 762 760 760 758 758 757 756 755 754 753 752 751 750 748 747 745 744 743
855 853 852 850 848 846 844 842 840 839 837 835 833 832 830 829 827 826 824 823 821 820 818 816 815 813 811 809 807 805 804 802 801 799 798 796 794 792 791 789 787 785 783 781 778 776 774 771 770 767 765 763 762 761 760 759 758 757 756 755 754 753 752 751 750 748 747 746 745
854 852 851 849 847 845 843 841 840 838 836 835 833 831 830 828 827 825 824 822 821 820 818 816 814 812 811 809 807 805 804 802 800 799 797 796 794 793 791 790 788 785 784 782 779 777 775 773 771 769 767 765 764 762 761 760 759 758 757 756 755 754 753 752 750 749 748 747 746
Wind_Speed
20 20 20 20 20 20 20 20 20 20 21 21 21 21 21 22 22 22 22 22 23 23 24 24 24 24 25 27 28 29 29 29 29 29 29 30 29 29 29 28 28 28 28 29 29 28 28 27 27 26 26 26 26 26 25 25 25 26 25 25 25 25 25 25 25 26 26 26 26
20 21 21 20 20 21 21 21 21 21 21 22 21 21 21 21 21 22 22 23 23 24 25 25 25 25 26 27 28 28 28 29 29 30 30 30 29 28 28 28 28 28 28 29 29 28 27 27 27 27 26 26 26 25 25 25 26 26 27 27 27 26 25 25 25 25 25 25 25
21 21 21 21 21 21 22 21 21 22 23 22 21 21 20 20 21 22 22 23 24 25 25 25 26 26 27 27 27 28 28 29 30 30 29 29 28 28 27 28 28 28 28 28 28 28 27 27 27 26 26 25 25 26 26 26 26 27 27 28 27 26 25 24 24 24 23 23 23
21 21 21 21 22 22 22 22 22 23 23 22 21 20 20 20 21 22 23 24 25 25 25 26 26 27 27 27 27 28 29 29 29 29 29 28 28 27 27 28 28 28 28 28 28 28 28 28 27 25 24 24 25 25 26 26 27 27 27 27 27 26 26 25 24 23 22 22 21
21 21 21 21 22 22 22 22 23 23 23 21 21 20 20 20 21 22 24 25 25 25 26 27 27 27 27 27 28 29 29 29 28 28 28 28 27 27 27 28 28 27 28 28 28 28 28 28 26 24 23 23 23 24 25 26 27 27 27 26 26 26 26 26 24 23 22 21 21
22 22 22 22 22 22 22 22 23 23 22 21 20 20 21 21 22 23 24 25 26 26 27 27 27 27 28 29 29 29 29 28 28 27 28 28 27 27 27 28 27 27 28 28 28 28 28 28 25 23 22 22 23 24 25 26 27 27 27 26 26 26 26 25 24 22 21 21 21
21 22 22 22 22 22 22 23 23 22 22 20 20 21 22 22 23 24 25 25 25 26 27 27 27 28 29 30 30 29 29 28 28 28 28 28 28 27 27 27 27 27 28 28 28 28 28 27 25 23 22 23 23 23 25 26 27 27 27 26 26 26 25 25 24 22 20 21 22
21 21 22 22 22 22 23 23 23 22 21 20 20 21 22 23 24 25 25 25 25 26 27 27 28 29 30 30 30 29 29 29 28 28 28 28 28 28 27 27 27 27 28 28 28 28 28 26 23 22 22 23 23 24 25 26 27 27 27 26 25 24 24 24 24 23 22 21 21
21 21 22 22 22 22 23 23 22 22 21 20 21 22 23 23 24 25 25 25 25 26 27 28 29 29 30 29 29 29 29 29 29 29 29 29 28 28 27 27 27 27 28 28 28 28 27 25 23 21 22 23 24 25 26 27 27 27 26 25 24 24 24 24 24 23 23 22 21
21 22 22 22 22 23 23 23 22 21 21 20 21 22 23 23 24 24 25 25 26 27 28 28 29 29 29 29 28 28 28 29 29 30 30 30 28 28 27 27 27 28 28 29 28 28 26 24 22 22 23 24 25 26 26 26 26 26 26 24 24 24 24 23 22 22 21 21 20
22 22 22 22 22 23 23 22 22 21 20 21 22 23 23 23 24 24 25 26 27 28 28 28 28 28 28 28 27 28 28 29 29 30 31 30 28 28 28 27 28 29 29 29 28 27 25 24 24 24 25 25 26 26 25 25 25 25 25 24 24 24 23 23 23 21 20 20 20
22 22 22 22 22 23 23 22 21 21 21 21 22 23 24 24 24 25 26 27 28 28 28 28 28 28 27 27 27 28 28 29 30 30 30 29 28 28 28 29 29 30 29 29 28 26 25 25 26 27 27 26 25 25 25 25 25 25 24 24 24 23 23 23 22 22 21 20 19
21 22 22 22 23 23 23 22 21 21 21 22 23 24 24 24 25 25 26 27 28 28 28 28 27 27 26 27 27 28 28 29 29 29 29 28 28 28 29 30 30 31 30 29 28 27 27 27 29 29 28 26 25 24 24 25 24 24 24 24 23 23 23 22 22 22 21 20 19
21 22 22 22 23 23 22 22 22 21 22 23 24 24 25 25 24 25 26 28 29 29 28 27 26 26 26 27 27 28 28 28 29 29 28 28 28 28 29 30 31 31 31 30 30 29 29 29 30 30 28 26 24 24 24 24 24 23 23 23 23 23 23 22 22 22 21 20 19
21 22 22 22 23 23 23 23 22 22 23 24 24 25 25 25 24 25 27 28 29 28 27 27 27 26 26 27 27 27 27 28 28 28 27 27 28 29 29 30 31 31 32 32 31 30 30 31 31 30 28 25 24 23 23 23 23 23 23 23 23 23 23 23 22 22 21 20 19
21 22 22 23 23 23 23 23 22 23 23 24 25 25 25 25 25 26 28 29 28 27 27 27 27 27 27 26 26 27 27 27 27 27 27 27 28 29 29 30 31 31 32 32 31 31 31 31 33 32 28 24 22 21 21 22 22 22 22 22 23 23 23 22 22 21 21 20 20
22 22 23 23 23 23 23 23 23 23 24 25 26 26 25 26 26 27 28 29 28 28 28 28 27 27 26 26 26 26 26 26 26 26 27 27 28 29 29 30 31 31 32 32 32 32 32 33 34 32 27 22 19 19 20 21 21 21 22 22 22 22 23 22 22 22 21 21 20
22 22 23 23 24 24 24 24 24 24 25 26 26 26 26 26 27 28 29 28 28 28 28 28 28 27 26 26 26 26 26 26 26 26 27 27 28 28 29 30 30 31 32 32 32 32 32 33 35 33 26 19 17 17 19 20 20 21 21 21 22 22 22 23 22 22 21 21 21
22 23 23 23 24 24 25 25 25 25 25 26 26 26 26 27 28 29 29 29 28 28 28 28 28 27 26 26 26 26 26 26 26 26 27 27 27 28 28 29 30 31 32 32 32 32 32 33 36 33 26 17 15 16 18 19 20 20 21 21 21 22 23 23 22 22 22 21 21
22 23 24 24 24 24 25 25 25 25 26 26 26 26 26 27 28 28 29 29 28 28 28 28 27 27 26 26 26 26 26 26 26 27 27 27 27 28 28 29 30 31 31 32 32 32 33 34 37 34 25 16 14 15 17 19 19 20 20 20 21 22 23 23 22 22 22 22 22
23 23 23 24 24 24 24 25 25 25 25 25 25 25 26 27 28 28 28 28 28 27 27 27 27 27 27 27 27 27 26 26 26 27 27 27 27 28 28 29 30 30 31 31 31 32 34 36 39 34 24 14 13 14 16 18 19 19 20 20 21 22 22 23 23 23 23 23 22
23 23 23 23 23 24 24 24 24 24 25 25 25 25 26 27 27 28 28 28 27 27 27 27 26 26 26 26 26 26 26 26 26 27 27 27 27 28 28 28 29 30 31 31 32 33 36 39 40 31 19 11 11 13 15 17 18 19 19 20 21 22 22 22 23 23 23 23 23
23 23 23 23 23 24 24 24 24 24 24 25 25 25 26 26 27 28 28 27 27 27 27 26 26 26 26 26 25 25 26 26 27 27 27 27 27 28 28 28 28 29 29 30 31 34 37 41 37 24 12 9 11 13 14 16 17 18 19 19 20 21 22 22 23 23 23 23 23
23 23 23 23 24 24 24 24 24 24 24 25 25 25 25 26 27 27 27 27 27 26 26 26 26 26 25 25 25 25 26 26 27 27 27 27 28 28 28 28 27 28 29 30 31 34 38 41 31 18 10 11 11 12 13 15 16 17 18 19 20 21 22 22 23 23 23 24 24
23 23 23 23 23 24 24 24 24 24 24 24 24 25 25 26 27 27 27 27 26 26 26 26 25 25 25 24 24 25 25 26 26 27 27 27 28 29 28 27 27 27 29 30 32 36 40 40 28 17 12 13 12 12 12 14 16 17 18 18 19 20 21 22 22 23 23 23 23
23 23 23 23 23 24 24 24 24 24 24 24 24 24 25 25 26 27 27 26 26 25 25 25 24 24 24 23 24 25 25 26 26 26 27 27 28 29 28 27 26 28 30 31 33 37 40 40 29 19 14 14 13 12 12 13 16 17 17 17 18 20 21 21 22 22 23 22 23
23 23 23 23 23 24 24 24 24 24 24 24 24 24 25 25 25 26 26 26 25 25 24 23 23 23 23 23 23 24 25 26 26 26 26 27 28 28 28 27 28 29 31 32 34 37 40 40 30 21 16 15 12 11 12 13 15 16 17 16 18 19 21 21 21 21 22 22 22
23 23 23 23 23 23 23 23 24 24 24 24 24 24 24 25 25 25 25 25 25 24 23 22 22 22 22 22 23 24 25 25 25 25 26 27 28 28 28 27 28 29 31 33 34 37 39 40 31 22 17 15 12 11 12 12 14 15 15 15 17 19 20 20 20 20 20 21 21
23 23 23 23 23 23 23 23 23 24 24 24 24 24 24 24 24 24 25 25 25 24 23 22 22 22 22 23 23 24 24 25 25 25 26 27 28 28 28 27 28 30 32 34 35 37 39 40 31 22 17 15 13 11 11 12 13 13 14 15 16 18 20 19 19 19 20 20 20
23 23 23 23 23 23 23 23 23 23 24 23 23 23 24 24 24 24 24 24 24 23 22 22 22 23 23 24 23 24 24 24 25 25 26 27 28 28 28 28 29 30 32 34 35 37 39 39 30 21 16 15 13 12 11 11 12 13 14 15 17 18 19 19 18 19 19 19 19
23 23 23 23 23 23 23 23 23 23 24 23 23 23 23 23 24 24 24 24 23 23 23 22 22 23 23 23 23 23 24 24 25 25 26 27 27 28 28 28 29 31 32 34 35 38 39 37 27 19 15 14 13 13 12 12 12 13 14 15 17 19 19 19 18 17 18 19 19
24 24 23 23 23 23 23 23 23 23 23 23 23 23 23 23 23 23 23 23 23 23 23 23 22 23 23 23 23 24 24 24 25 25 26 26 27 27 28 28 29 30 32 34 35 38 39 34 22 15 14 14 13 13 12 12 12 13 14 16 18 19 19 18 17 16 17 18 19
24 24 23 23 23 23 23 23 23 24 24 23 23 23 23 23 23 23 23 22 23 23 23 22 22 22 22 23 24 24 24 24 25 25 26 26 26 27 27 27 28 29 31 34 35 38 39 31 18 13 14 14 14 13 12 12 12 13 15 16 18 20 20 19 17 16 17 18 19
25 24 24 24 24 24 24 24 24 24 24 24 23 23 23 23 23 23 23 23 23 22 22 22 21 21 21 22 23 23 24 24 24 25 25 26 26 26 26 27 27 28 31 33 34 37 38 32 18 14 16 15 15 14 13 12 13 14 15 17 19 21 22 21 20 18 17 18 20
25 24 25 24 24 24 24 24 24 24 24 24 24 24 23 23 23 23 23 23 23 23 22 22 21 21 21 21 22 23 23 24 24 24 25 25 25 25 26 26 26 28 31 32 33 36 37 34 22 17 17 16 14 13 13 12 13 14 15 17 19 21 23 23 22 21 20 20 21
25 25 25 25 25 25 25 25 25 25 25 25 25 24 24 24 23 22 22 23 23 23 23 22 22 21 21 21 22 22 23 23 23 24 24 25 25 25 25 26 26 28 30 31 33 35 37 36 26 20 18 16 14 13 13 12 12 13 14 16 18 20 21 22 22 22 22 22 22
25 25 26 26 26 26 26 25 25 25 25 25 25 24 24 24 23 22 22 22 22 23 23 23 22 22 21 22 22 22 22 23 23 23 24 24 24 24 24 25 26 27 28 30 33 34 35 36 30 24 20 16 15 14 13 12 12 12 13 14 16 18 19 18 19 21 22 22 22
26 26 26 26 26 26 26 26 26 26 26 25 25 24 24 23 23 22 22 21 22 22 23 23 22 22 22 22 22 22 22 22 22 22 23 24 24 24 24 24 25 26 27 29 31 33 34 34 33 29 23 17 15 14 14 13 13 13 13 13 14 15 16 15 16 17 20 22 23
26 26 26 26 26 26 26 26 26 26 26 26 25 24 24 23 22 22 22 21 21 22 22 22 22 22 22 22 22 22 22 21 21 21 22 23 23 23 23 23 23 25 26 28 30 32 32 32 32 31 27 21 16 14 14 14 14 14 13 13 14 14 14 14 13 14 17 20 22
27 26 26 26 26 27 27 27 26 26 26 25 25 24 23 23 22 22 22 21 21 21 21 22 22 22 22 22 22 21 21 21 21 21 21 22 22 22 22 22 22 24 25 27 29 30 30 31 31 32 30 26 19 15 13 14 14 15 15 15 14 14 13 13 13 13 14 17 20
26 26 26 26 26 27 27 27 26 26 25 25 24 24 23 22 22 22 22 22 22 21 21 21 21 22 22 22 21 21 20 21 21 21 21 21 21 21 20 21 22 23 24 26 27 28 29 29 30 31 31 28 23 17 13 14 15 16 16 16 15 14 13 13 13 13 14 14 16
Wind_Direction
338 337 336 335 334 333 332 331 330 329 329 328 327 326 325 324 323 322 322 322 322 321 320 319 317 316 316 317 317 318 318 317 317 316 316 315 315 314 315 316 319 321 321 319 318 316 315 314 314 314 313 312 311 311 310 309 308 306 302 298 294 290 286 281 277 274 270 267 266
337 337 336 335 334 333 332 331 330 329 329 328 326 325 324 324 323 323 322 322 322 321 320 318 318 317 316 317 317 318 317 317 316 316 315 314 314 315 316 318 321 322 321 319 318 317 315 314 314 313 312 312 312 311 311 311 311 309 306 302 298 293 287 282 277 273 270 268 265
336 336 336 335 335 334 333 331 330 329 329 327 326 325 324 324 323 323 323 322 322 321 320 320 319 318 318 317 318 318 317 317 316 316 315 314 315 315 317 320 322 323 321 320 319 317 316 315 314 312 311 311 311 312 312 312 313 312 309 307 303 297 291 283 277 274 271 268 265
336 336 336 335 335 335 333 332 330 330 329 327 326 325 325 324 324 324 323 323 322 322 322 321 320 319 319 318 318 318 317 316 316 315 314 314 314 316 318 322 323 323 322 320 319 318 317 316 314 311 310 310 311 312 313 314 315 314 312 310 307 302 296 287 280 274 270 268 266
337 337 336 335 335 334 333 332 331 330 329 327 326 325 325 325 325 325 325 324 324 323 323 322 321 320 320 320 319 318 317 316 316 315 315 315 315 316 320 323 324 323 322 321 320 319 318 317 315 312 310 310 312 312 312 314 315 315 313 311 309 307 302 295 285 276 269 266 264
336 336 336 336 335 335 334 333 332 330 329 327 326 325 325 326 326 326 326 325 324 324 324 323 322 322 321 321 320 319 319 318 317 316 315 315 314 317 321 324 325 324 323 322 321 320 320 319 316 313 310 312 313 313 313 314 315 315 315 313 311 310 308 303 295 284 272 265 263
336 336 336 336 336 335 335 334 333 331 329 328 326 326 326 326 326 326 326 325 325 325 325 325 324 323 323 322 321 320 319 318 318 317 316 315 315 317 321 325 326 325 323 322 322 322 321 320 316 313 312 315 315 314 315 316 315 315 315 314 313 312 312 312 310 302 289 275 267
336 337 337 336 336 336 335 334 333 331 330 328 327 326 326 326 326 326 327 327 327 327 326 325 324 323 323 322 321 320 320 319 319 318 317 315 315 318 322 326 327 326 324 323 323 323 322 319 315 312 313 315 315 315 316 317 316 316 316 316 315 314 315 316 318 318 313 302 288
337 337 337 337 336 336 335 334 333 331 330 329 328 327 327 327 327 328 328 328 327 327 326 325 324 323 323 323 322 321 320 320 319 318 317 315 315 319 325 328 328 326 324 324 324 323 321 318 315 313 313 315 316 316 316 316 316 316 317 317 317 317 317 317 319 320 321 318 312
338 338 337 337 337 336 335 334 333 332 331 330 330 329 329 328 328 328 328 328 327 327 326 325 324 324 323 323 322 322 321 320 319 318 317 316 318 322 328 329 328 326 324 324 323 323 322 319 315 313 313 314 317 317 317 317 317 317 317 317 318 319 320 320 321 321 321 319 318
338 338 338 337 336 335 335 334 333 333 332 331 331 331 330 329 329 328 328 328 328 327 326 326 325 324 324 323 323 322 321 320 320 319 318 318 322 327 330 330 328 325 324 323 323 323 322 321 318 314 313 315 318 319 319 318 317 317 317 318 319 321 322 323 325 324 322 320 317
338 338 337 336 336 335 335 334 334 333 333 332 332 331 331 330 329 329 329 329 329 328 327 326 325 325 324 323 323 322 321 321 320 320 320 321 326 329 331 330 328 326 325 324 324 324 324 323 320 316 315 316 319 321 320 320 319 319 319 319 321 322 324 326 327 327 326 323 320
338 338 337 337 336 336 335 335 334 334 333 332 332 332 331 330 331 331 331 331 330 329 328 327 326 325 324 323 323 322 322 321 321 321 321 324 328 330 330 329 328 327 326 325 325 325 325 324 322 319 317 316 319 321 321 321 321 321 321 322 322 324 325 327 329 329 328 327 325
338 338 337 337 337 336 336 336 335 334 333 333 333 332 332 332 332 333 333 332 331 329 328 327 327 326 325 324 324 323 323 322 322 322 323 325 328 329 330 329 328 327 327 327 326 325 325 325 323 321 318 316 319 322 323 323 323 323 323 324 324 325 326 327 329 330 331 330 328
338 338 338 337 337 337 337 337 336 335 334 334 334 333 333 333 334 334 333 332 331 330 329 328 327 326 325 325 325 325 324 324 323 323 324 326 328 329 330 329 328 328 328 327 326 326 325 325 324 321 317 316 319 322 324 325 325 325 325 325 326 326 327 328 330 332 333 332 331
338 338 338 338 337 337 337 337 336 335 335 335 334 334 334 335 336 335 334 333 332 330 329 329 328 327 327 327 327 327 326 326 325 325 326 327 328 329 330 330 329 328 328 328 327 326 325 325 324 321 317 315 319 323 326 327 328 328 328 328 328 329 329 330 332 334 335 335 335
337 337 338 337 337 337 336 336 336 335 335 334 334 335 336 337 337 336 334 333 332 331 330 330 329 329 328 328 328 328 328 327 327 327 327 327 328 329 330 330 329 328 328 328 327 326 325 325 325 321 316 314 320 325 329 330 330 331 331 331 332 332 333 334 335 337 338 339 339
337 337 337 337 337 336 336 335 335 334 334 334 333 335 336 337 337 335 334 333 333 331 331 330 331 330 329 329 330 330 330 329 328 328 328 328 329 330 331 331 330 329 329 328 327 326 325 325 326 323 318 316 323 329 333 334 334 334 334 335 336 336 336 337 338 340 342 343 343
337 337 336 336 336 336 335 335 334 334 334 333 333 334 336 337 336 335 334 334 333 332 332 332 331 331 331 331 332 332 331 330 330 330 330 330 331 332 332 332 331 330 329 328 327 326 325 325 325 323 319 319 328 336 339 339 337 337 337 338 339 340 340 340 341 343 345 346 347
336 336 336 335 335 335 335 334 334 334 334 334 333 334 335 336 336 335 335 334 333 333 333 333 332 332 332 333 334 334 334 333 333 332 332 333 333 333 333 333 332 331 330 329 328 327 325 324 323 321 320 322 334 343 345 344 341 341 341 342 343 343 343 343 343 345 348 350 351
336 335 334 334 334 334 334 333 333 334 334 334 334 335 335 335 336 336 335 334 334 334 334 334 334 333 333 333 334 335 335 335 335 334 334 334 335 335 335 334 333 332 331 330 329 328 326 323 322 320 319 326 341 348 349 348 345 344 344 345 345 346 346 346 346 347 349 352 355
334 334 333 333 333 333 333 333 332 333 333 333 334 335 335 336 336 336 335 335 335 335 335 335 334 333 333 333 334 335 336 336 336 336 336 336 336 336 336 335 333 333 332 331 331 329 326 324 323 322 324 337 349 353 353 351 349 347 347 346 347 348 349 348 348 349 351 355 357
333 333 332 332 332 332 332 332 332 333 334 334 334 335 335 336 336 336 336 336 335 336 336 336 334 333 333 333 334 335 336 337 337 337 338 338 338 337 337 336 335 334 333 333 332 329 327 326 327 331 344 358 358 356 356 354 352 349 348 347 348 349 350 350 350 351 352 355 358
332 331 332 332 332 332 332 332 333 334 334 334 334 335 335 336 337 337 337 336 336 336 336 336 335 334 334 334 335 336 336 337 337 338 339 339 340 339 338 337 336 335 334 333 331 329 329 331 337 349 11 6 360 357 356 356 353 351 348 347 348 349 349 351 352 352 352 355 358
331 331 331 332 332 332 332 333 334 334 334 334 334 334 335 336 337 337 336 336 336 336 336 336 335 335 335 334 335 336 337 337 338 338 339 341 341 341 339 338 338 336 334 333 331 331 333 338 348 3 11 1 356 354 355 355 354 351 348 348 348 349 349 350 351 353 354 355 358
331 331 331 331 332 332 333 333 334 333 333 333 333 334 335 336 337 337 336 335 335 335 335 335 335 335 335 334 334 336 337 338 338 339 340 341 341 341 341 340 338 336 334 332 331 332 335 341 350 360 1 354 351 350 351 353 353 351 348 347 349 350 350 350 351 352 354 355 357
330 330 330 331 332 332 333 333 333 333 333 333 333 334 334 335 336 336 336 335 334 334 334 335 335 336 335 334 335 336 337 338 338 339 340 341 342 342 341 340 338 336 333 332 332 333 335 340 347 353 354 351 349 348 349 349 349 348 347 347 349 351 351 351 350 351 353 355 358
329 329 330 331 331 331 332 332 332 333 333 333 332 333 334 334 335 335 335 335 334 334 335 335 335 336 335 335 335 336 337 338 339 339 340 341 342 342 341 340 338 335 333 332 334 334 336 341 344 347 349 349 348 348 347 347 346 345 346 348 350 351 352 353 353 353 354 358 1
328 328 329 329 329 330 331 331 332 332 332 331 331 332 333 334 335 335 335 336 335 335 336 335 335 335 335 335 335 336 337 339 339 340 340 341 342 342 341 340 338 335 334 334 335 335 337 340 342 345 347 348 347 347 347 347 345 345 347 350 350 351 354 356 356 356 359 3 4
326 326 326 327 327 328 330 330 330 331 331 331 330 331 332 334 335 336 336 336 336 335 334 334 333 333 333 334 335 336 338 339 339 339 340 341 341 341 341 340 338 336 335 335 336 336 337 340 341 343 346 348 348 350 352 350 348 349 350 352 351 353 357 1 1 1 3 8 9
325 325 324 324 325 326 327 328 329 330 330 330 329 330 332 333 335 336 336 336 335 334 333 333 332 331 331 333 334 336 338 338 338 339 339 340 340 341 340 340 338 336 336 336 337 337 338 340 341 344 347 349 350 355 359 356 354 355 356 355 354 357 1 6 8 6 6 11 13
323 323 322 322 323 324 325 326 328 329 329 328 328 329 331 332 334 335 335 336 335 334 334 333 332 331 331 333 334 336 337 337 337 337 338 339 339 340 340 339 338 337 336 337 338 339 340 343 346 351 352 352 356 3 6 2 1 2 1 358 359 2 7 11 11 9 10 15 18
321 321 321 321 321 322 323 324 326 327 327 327 327 328 329 331 332 334 335 336 336 335 334 333 331 331 331 332 333 335 335 336 336 336 336 337 338 339 340 339 338 337 337 338 338 340 345 353 1 3 359 358 5 10 9 6 9 9 6 3 5 9 14 16 16 17 20 20 22
320 320 320 320 320 321 322 323 324 325 325 326 326 327 328 329 331 332 334 336 336 335 334 332 330 329 329 330 332 333 333 334 334 335 336 337 338 339 339 339 337 337 338 339 339 342 350 4 16 14 3 3 8 9 9 10 14 13 10 8 10 14 17 18 19 24 29 29 26
320 320 320 320 320 320 321 322 322 323 324 324 325 325 326 327 329 330 332 334 335 334 333 332 330 329 328 329 331 331 332 333 333 334 335 337 338 339 339 339 338 338 339 340 340 342 351 8 19 16 5 3 3 4 7 12 15 14 11 11 14 16 17 17 21 29 36 36 32
320 320 320 320 320 320 320 321 321 322 323 323 324 324 325 326 326 328 330 332 333 333 333 332 331 329 329 329 330 330 331 332 333 334 335 337 338 339 339 339 338 339 340 341 340 342 352 8 17 16 6 2 1 2 6 11 14 13 12 12 13 14 15 17 23 31 37 39 36
320 320 320 320 320 320 320 320 321 321 322 322 323 323 323 324 324 325 327 330 331 332 332 332 331 330 329 329 329 329 330 331 333 334 336 337 338 339 340 339 339 340 341 341 341 342 351 6 16 17 10 3 1 1 3 7 11 12 11 11 12 13 14 17 24 30 35 38 39
320 320 320 319 319 319 319 320 320 321 321 321 322 322 323 323 323 324 326 328 329 330 331 331 330 330 329 328 327 327 329 330 333 335 336 337 338 340 340 340 340 340 341 342 342 343 350 3 12 16 13 7 1 358 360 2 6 8 10 11 12 12 12 14 21 27 33 38 40
320 319 319 319 318 319 319 320 320 320 320 321 321 322 322 323 323 324 325 326 326 327 328 329 329 328 328 327 326 326 327 329 333 335 337 337 338 340 342 342 341 342 342 343 343 345 351 1 8 12 14 12 5 360 358 360 2 4 7 9 12 13 12 12 16 23 31 38 42
319 319 318 318 318 319 319 319 319 320 320 320 321 322 322 322 323 323 323 324 324 325 326 326 327 327 327 327 326 326 326 328 331 334 336 337 338 341 343 344 343 343 344 344 344 347 353 1 6 9 12 13 10 6 2 2 2 3 5 7 9 10 11 11 13 17 25 34 43
318 318 318 318 319 319 319 319 319 319 320 320 320 321 322 322 322 322 323 323 323 323 324 325 326 327 327 327 326 325 326 327 329 332 335 337 339 341 344 346 346 346 346 346 347 350 357 4 7 9 11 13 14 14 11 8 6 4 3 3 4 6 7 7 8 9 11 19 36